[[{"header":{"parameterUnit":"m.s-1","parameterCategory":1,"la1":30.2991,"la2":30.254,"lo1":-89.0895,"lo2":-89.0444,"dy":0.0017,"dx":0.0017,"nx":28,"ny":28,"refTime":"2025-04-03T09:00:00:Z","depth":0,"parameterNumber":2,"parameterNumberName":"U-component_of_WINDS"},"data":[0,0,0,0,0,0,0,0,0,0,0,0,0,0,0,0,0,0,0,0,0,0,0,0,0,0,0,0,0,0,0,0,0,0,0,0,0,0,0,0,0,0,0,0,0,0,0,0,0,0,0,0,0,0,0,0,0,0,-4.9277,-4.9278,0,-4.9379,-4.9381,-4.9382,-4.9367,-4.9365,-4.9364,-4.9362,-4.9464,-4.9468,-4.9472,0,0,0,0,0,0,0,0,0,0,0,0,0,-4.9068,-4.9072,-4.9277,-4.9278,-4.928,-4.9379,-4.9381,-4.9382,-4.9367,-4.9365,-4.9363,-4.9361,-4.9463,-4.9468,-4.9473,0,0,0,0,0,0,0,0,0,0,0,0,0,-4.9163,-4.9073,-4.9277,-4.9284,-4.9286,-4.9379,-4.9381,-4.9382,-4.9368,-4.9365,-4.9363,-4.936,-4.9461,-4.9467,-4.9474,-4.9564,0,0,-4.9493,-4.9496,0,0,0,0,0,0,0,0,-4.9158,-4.9171,-4.9282,-4.9284,-4.9286,-4.9358,-4.9344,-4.9443,-4.9368,-4.9337,-4.9362,-4.9359,-4.9431,-4.9439,-4.9464,-4.9569,-4.9574,-4.9494,-4.9498,-4.9501,-4.9502,0,0,0,0,0,0,0,-4.9151,-4.9166,-4.9317,-4.9284,-4.9286,-4.9282,-4.9293,-4.9363,-4.9397,-4.9339,-4.9338,-4.9351,-4.9431,-4.9458,-4.9466,-4.9575,-4.9494,-4.9499,-4.9503,-4.9506,-4.976,-4.9763,0,0,0,0,0,0,-4.9143,-4.9161,-4.9314,-4.932,-4.9214,-4.9288,-4.93,-4.9337,-4.9396,-4.9402,-4.9353,-4.935,-4.9448,-4.9459,-4.947,-4.9579,-4.95,-4.9507,-4.951,-4.9757,-4.9761,-4.9764,0,0,0,0,0,0,-4.9138,-4.9157,-4.931,-4.9241,-4.926,-4.9294,-4.9336,-4.9341,-4.9367,-4.9406,-4.9412,-4.9374,-4.9447,-4.9461,-4.9541,-4.9583,-4.9509,-4.9515,-4.9754,-4.9759,-4.9763,-4.98,0,0,0,0,0,0,-4.9132,-4.9155,-4.919,-4.9242,-4.9264,-4.938,-4.9339,-4.9345,-4.9379,-4.9376,-4.9428,-4.9434,-4.9446,-4.9532,-4.9548,-4.959,-4.952,-4.975,-4.9756,-4.9761,-4.9795,-4.9805,-4.9813,0,0,0,0,0,-4.9125,-4.9196,-4.9192,-4.921,-4.9308,-4.9383,-4.9395,-4.9408,-4.9382,-4.9417,-4.9443,-4.9432,-4.9577,-4.954,-4.9558,-4.9603,-4.9748,-4.9754,-4.9761,-4.9791,-4.9803,-4.9813,0,0,0,0,0,0,-4.9147,-4.9203,-4.9199,-4.9289,-4.9331,-4.938,-4.9424,-4.9421,-4.947,-4.9465,-4.9479,-4.9491,-4.9572,-4.9596,-4.9555,-4.9695,-4.9658,-4.9669,-4.9675,-4.9687,-4.9696,-4.9687,-4.9526,0,0,0,0,0,-4.9163,-4.9219,-4.9265,-4.9339,-4.9361,-4.939,-4.9422,-4.9429,-4.9473,-4.9491,-4.9522,-4.9564,-4.9619,-4.9655,-4.9708,-4.98,-4.981,-4.984,-4.9849,-4.9856,-4.9864,-4.9914,-4.9927,-4.9785,-4.9785,-4.9785,0,0,-4.9195,-4.9232,-4.9266,-4.9345,-4.9378,-4.9436,-4.9404,-4.9466,-4.9509,-4.95,-4.9577,-4.9602,-4.9651,-4.9737,-4.9777,-4.976,-4.9906,-4.9865,-4.987,-4.9874,-4.9922,-4.9935,-4.9947,-4.979,-4.9789,-4.9788,0,0,-4.9282,-4.9317,-4.9382,-4.9418,-4.947,-4.9488,-4.9505,-4.9555,-4.9571,-4.965,-4.9644,-4.9695,-4.979,-4.9825,-4.9855,-4.9958,-4.9949,-4.9975,-5.0022,-5.007,-5.0081,-5.0091,-5.0127,-5.014,-4.9983,-4.9984,-4.9984,0,-4.9314,-4.9401,-4.9417,-4.948,-4.9514,-4.9511,-4.9577,-4.961,-4.9677,-4.97,-4.9681,-4.98,-4.9833,-4.9927,-4.9952,-4.9977,-4.9995,-4.9967,-5.0079,-5.0089,-5.0098,-5.0132,-5.0146,-4.9986,-4.9986,-4.9986,-4.9985,0,-4.9438,-4.9499,-4.9546,-4.9611,-4.9651,-4.9716,-4.9741,-4.9779,-4.9784,-4.9804,-4.9885,-4.9924,-4.9985,-5.0009,-5.0013,-5.0104,-5.0092,-5.0076,-5.0039,-5.0114,-5.0146,-5.0159,-4.999,-4.9989,-4.9988,-4.9987,0,0,-4.9539,-4.9614,-4.9631,-4.966,-4.9719,-4.9765,-4.9831,-4.9891,-4.9923,-4.997,-5.0024,-5.0106,-5.0092,-5.0126,-5.0134,-5.0177,-5.0255,-5.0156,-5.0157,-5.0171,-5.0357,-5.0367,-5.0382,-5.0252,-5.0254,-5.0256,-5.0352,0,-4.963,-4.9745,-4.9762,-4.9863,-4.9918,-4.9917,-4.9974,-5.0016,-5.0038,-5.0088,-5.0112,-5.0169,-5.0147,-5.0168,-5.0211,-5.0237,-5.0292,-5.0231,-5.03,-5.0303,-5.0285,-5.0399,-5.0409,-5.0497,-5.0365,-5.0367,-5.0369,0,-4.9751,-4.9802,-4.9909,-4.9961,-4.9985,-5.0035,-5.0092,-5.0141,-5.0189,-5.0202,-5.0241,-5.0245,-5.0312,-5.0275,-5.0367,-5.0325,-5.0355,-5.0372,-5.0376,-5.0381,-5.0338,-5.0404,-5.0526,-5.0538,-5.0389,-5.0387,-5.0386,0,-4.9812,-4.9907,-4.9984,-5.0009,-5.0072,-5.0107,-5.0135,-5.018,-5.0216,-5.0266,-5.029,-5.0347,-5.0378,-5.0422,-5.0441,-5.0413,-5.0531,-5.0496,-5.0543,-5.0542,-5.0565,-5.0563,-5.0691,-5.0589,-5.0589,-5.0588,-5.0588,0,-4.991,-4.9975,-5.0012,-5.0058,-5.0131,-5.015,-5.0222,-5.0248,-5.0289,-5.034,-5.0344,-5.0392,-5.0416,-5.0467,-5.0483,-5.0556,-5.057,-5.0582,-5.0585,-5.058,-5.0578,-5.0598,-5.0591,-5.0592,-5.0591,-5.059,-5.059,0,-4.9988,-5.0016,-5.0098,-5.0152,-5.0167,-5.0218,-5.0263,-5.0309,-5.0332,-5.0397,-5.0413,-5.0449,-5.051,-5.0534,-5.0609,-5.0619,-5.0703,-5.0702,-5.0687,-5.0687,-5.0731,-5.0726,-5.0874,-5.0894,-5.0781,-5.0782,-5.0783,0,-5.0048,-5.0098,-5.0157,-5.0193,-5.0222,-5.0278,-5.0315,-5.0337,-5.0375,-5.0434,-5.0472,-5.0534,-5.0584,-5.0682,-5.0713,-5.0771,-5.077,-5.0818,-5.0778,-5.0772,-5.0768,-5.0764,-5.0768,-5.0824,-5.0825,-5.0826,-5.0827,0,-5.015,-5.0162,-5.0215,-5.0274,-5.0319,-5.0366,-5.0411,-5.044,-5.0469,-5.0512,-5.0575,-5.0614,-5.0691,-5.0752,-5.0811,-5.0839,-5.0838,-5.084,-5.0854,-5.0848,-5.0836,-5.0841,-5.0704,-5.0836,-5.0835,-5.0834,-5.0834,-5.0833,-5.022,-5.0264,-5.0313,-5.0373,-5.041,-5.0453,-5.0498,-5.0528,-5.0581,-5.0646,-5.0656,-5.0723,-5.0771,-5.0851,-5.0882,-5.0934,-5.0922,-5.0941,-5.0946,-5.095,-5.0952,-5.083,-5.0945,-5.0945,-5.0945,-5.0945,-5.0945,0,-5.0321,-5.0353,-5.0408,-5.0472,-5.0519,-5.0517,-5.0568,-5.0607,-5.0666,-5.0711,-5.0761,-5.0834,-5.0893,-5.0931,-5.0991,-5.1026,-5.1027,-5.104,-5.1037,-5.1043,-5.0961,-5.0942,-5.1039,-5.1039,-5.1039,-5.1039,-5.1039,-5.1039,-5.0379,-5.0453,-5.0471,-5.0565,-5.0596,-5.0663,-5.0692,-5.0732,-5.0768,-5.0849,-5.0899,-5.0924,-5.0966,-5.1029,-5.1084,-5.1093,-5.1114,-5.1129,-5.1137,-5.1059,-5.1049,-5.1039,-5.1022,-5.1134,-5.1134,-5.1215,-5.1215,-5.1216]},{"header":{"parameterUnit":"m.s-1","parameterCategory":1,"la1":30.2991,"la2":30.254,"lo1":-89.0895,"lo2":-89.0444,"dy":0.0017,"dx":0.0017,"nx":28,"ny":28,"refTime":"2025-04-03T09:00:00:Z","depth":0,"parameterNumber":3,"parameterNumberName":"V-component_of_WINDS"},"data":[0,0,0,0,0,0,0,0,0,0,0,0,0,0,0,0,0,0,0,0,0,0,0,0,0,0,0,0,0,0,0,0,0,0,0,0,0,0,0,0,0,0,0,0,0,0,0,0,0,0,0,0,0,0,0,0,0,0,4.6126,4.6127,0,4.6266,4.6267,4.6269,4.6261,4.6259,4.6257,4.6255,4.6395,4.64,4.6406,0,0,0,0,0,0,0,0,0,0,0,0,0,4.5851,4.5856,4.6126,4.6128,4.6129,4.6266,4.6268,4.6269,4.6261,4.6259,4.6256,4.6254,4.6393,4.6399,4.6406,0,0,0,0,0,0,0,0,0,0,0,0,0,4.5978,4.5858,4.6126,4.6142,4.6145,4.6265,4.6268,4.627,4.6262,4.6259,4.6255,4.6253,4.639,4.6399,4.6407,4.652,0,0,4.6433,4.6436,0,0,0,0,0,0,0,0,4.5971,4.5988,4.6138,4.6141,4.6144,4.6243,4.6222,4.6354,4.6262,4.6217,4.6255,4.6251,4.6346,4.6358,4.6391,4.6526,4.6532,4.6433,4.6439,4.6442,4.6445,0,0,0,0,0,0,0,4.5962,4.5982,4.6181,4.614,4.6144,4.6142,4.6157,4.6247,4.6297,4.6221,4.622,4.6237,4.6347,4.6383,4.6394,4.6534,4.6433,4.6441,4.6446,4.6449,4.6773,4.6776,0,0,0,0,0,0,4.595,4.5975,4.6177,4.6185,4.6049,4.6149,4.6166,4.6214,4.6296,4.6305,4.624,4.6236,4.637,4.6384,4.6399,4.6539,4.6442,4.645,4.6455,4.6769,4.6774,4.6777,0,0,0,0,0,0,4.5944,4.5968,4.6171,4.608,4.6106,4.6157,4.6212,4.6218,4.6254,4.631,4.6319,4.6267,4.6368,4.6387,4.6491,4.6544,4.6454,4.6461,4.6765,4.6771,4.6776,4.6818,0,0,0,0,0,0,4.5936,4.5966,4.6009,4.6081,4.6111,4.6261,4.6215,4.6223,4.6269,4.6266,4.6338,4.6347,4.6367,4.6478,4.6499,4.6554,4.6468,4.6761,4.6768,4.6774,4.6812,4.6824,4.6834,0,0,0,0,0,4.5927,4.6014,4.6012,4.6036,4.6166,4.6264,4.6281,4.6303,4.6273,4.6317,4.6354,4.6345,4.6534,4.6489,4.6512,4.657,4.6757,4.6766,4.6773,4.6807,4.6822,4.6834,0,0,0,0,0,0,4.5945,4.6024,4.6022,4.6135,4.6193,4.6262,4.6318,4.6317,4.6384,4.6378,4.6402,4.6419,4.6524,4.6557,4.6505,4.6685,4.6642,4.6655,4.666,4.6674,4.6685,4.6675,4.6475,0,0,0,0,0,4.5963,4.6036,4.61,4.6195,4.6224,4.6267,4.631,4.6323,4.6383,4.6407,4.6451,4.6509,4.6583,4.663,4.67,4.6817,4.6834,4.6868,4.6879,4.6888,4.69,4.6967,4.6984,4.6804,4.6804,4.6803,0,0,4.5999,4.6051,4.6096,4.62,4.6246,4.6322,4.6287,4.6367,4.6424,4.6419,4.6521,4.6555,4.6622,4.6734,4.6785,4.6765,4.6953,4.6899,4.6905,4.6912,4.6977,4.6994,4.7009,4.6809,4.6808,4.6807,0,0,4.6105,4.6151,4.6236,4.6284,4.6356,4.6384,4.6404,4.6475,4.6498,4.6601,4.66,4.6667,4.6791,4.684,4.6881,4.701,4.7004,4.7032,4.709,4.7155,4.717,4.7182,4.723,4.7247,4.7042,4.7043,4.7043,0,4.6141,4.6255,4.6279,4.6362,4.6409,4.641,4.6497,4.6542,4.6632,4.6664,4.6641,4.68,4.6844,4.6969,4.7001,4.7034,4.7059,4.7024,4.7166,4.7179,4.7191,4.7237,4.7255,4.7046,4.7045,4.7045,4.7045,0,4.6297,4.6377,4.6437,4.6527,4.658,4.6665,4.6702,4.6753,4.6762,4.6793,4.6899,4.6953,4.7036,4.7066,4.7074,4.7194,4.7179,4.716,4.7117,4.7211,4.7254,4.7272,4.705,4.7049,4.7048,4.7047,0,0,4.6417,4.6521,4.6543,4.6586,4.6666,4.6728,4.6813,4.6896,4.6941,4.7003,4.7077,4.7184,4.7168,4.7215,4.7229,4.7286,4.7388,4.7261,4.7263,4.7284,4.7525,4.7539,4.7559,4.7385,4.7388,4.7391,4.752,0,4.6532,4.6684,4.671,4.6844,4.6919,4.6923,4.6997,4.7055,4.7087,4.7155,4.719,4.7267,4.7239,4.7268,4.7325,4.7363,4.7437,4.7354,4.7453,4.7457,4.7438,4.7582,4.7597,4.7716,4.7537,4.754,4.7542,0,4.6686,4.6756,4.6898,4.6972,4.7005,4.7071,4.7151,4.7216,4.7282,4.7302,4.7356,4.7364,4.7454,4.7407,4.7531,4.7475,4.7517,4.7543,4.7548,4.7559,4.7505,4.7598,4.7754,4.7773,4.7568,4.7566,4.7564,0,4.6762,4.6891,4.6994,4.703,4.7117,4.7165,4.7204,4.7267,4.7316,4.7386,4.7418,4.7496,4.754,4.76,4.763,4.7593,4.7753,4.7708,4.7772,4.7772,4.7806,4.7804,4.7973,4.7831,4.7831,4.7831,4.783,0,4.6889,4.6976,4.703,4.7093,4.7191,4.722,4.7317,4.7354,4.7411,4.7482,4.7489,4.7555,4.759,4.7661,4.7685,4.7786,4.7804,4.7823,4.7829,4.7824,4.7822,4.7852,4.7845,4.7835,4.7834,4.7833,4.7833,0,4.699,4.7029,4.7142,4.7217,4.7238,4.7308,4.7372,4.7434,4.7467,4.7556,4.7579,4.763,4.7715,4.7751,4.7854,4.787,4.7987,4.7985,4.7965,4.7967,4.803,4.8025,4.8226,4.8255,4.8093,4.8094,4.8095,0,4.7069,4.7136,4.722,4.7269,4.731,4.7388,4.744,4.7471,4.7524,4.7607,4.766,4.7745,4.7816,4.7951,4.7997,4.8077,4.8079,4.8144,4.8091,4.8085,4.8082,4.8079,4.8086,4.8154,4.8155,4.8157,4.8158,0,4.7206,4.7223,4.7297,4.7379,4.7441,4.7507,4.7571,4.7611,4.7652,4.7712,4.78,4.7855,4.7963,4.8048,4.8132,4.8171,4.8173,4.8174,4.8194,4.819,4.8177,4.8187,4.7993,4.817,4.8168,4.8167,4.8167,4.8166,4.7299,4.7361,4.7431,4.7514,4.7567,4.7627,4.7691,4.7732,4.7807,4.7899,4.7912,4.8008,4.8075,4.8187,4.8231,4.8305,4.8289,4.8316,4.8324,4.8331,4.8336,4.8164,4.832,4.832,4.832,4.832,4.8319,0,4.7439,4.7484,4.7561,4.7652,4.7719,4.7715,4.7787,4.7843,4.7927,4.799,4.806,4.8163,4.8247,4.8301,4.8386,4.8435,4.8438,4.8457,4.8454,4.8464,4.8345,4.832,4.8453,4.8453,4.8453,4.8453,4.8453,4.8453,4.7519,4.7624,4.765,4.7782,4.7827,4.7921,4.7963,4.802,4.8071,4.8186,4.8257,4.8292,4.8352,4.8442,4.8519,4.8533,4.8565,4.8585,4.8597,4.8485,4.8472,4.8458,4.8436,4.8591,4.8591,4.8711,4.8712,4.8712]}]]